Weather History for Cannes, France

Change the Weather History Date:

Tuesday, November 6, 2012

  Actual Average Record
Temperature  
Mean Temperature 56 °F -  
Max Temperature 66 °F 58 °F 71 °F (2010)
Min Temperature 46 °F 45 °F 44 °F (2006)
Degree Days  
Heating Degree Days 9    
Growing Degree Days 6 (Base 50)    
Moisture  
Dew Point 37 °F    
Average Humidity 52    
Maximum Humidity 71    
Minimum Humidity 32    
Precipitation  
Precipitation 0.00 in - - ()
Sea Level Pressure  
Sea Level Pressure 29.94 in    
Wind  
Wind Speed 7 mph ()    
Max Wind Speed 21 mph    
Max Gust Speed 34 mph    
Visibility 6.2 miles    
Events      
Averages and records for this station are not official NWS values.
T = Trace of Precipitation, MM = Missing Value Source: Averaged Metar Reports

Daily Weather History Graph

Daily Weather History Graph

Search for Another Location

Airport:

Trip Planner

Search our weather history database for the weather conditions in past years. The results will help you decide how hot, cold, wet, or windy it might be!

Date:

Astronomy

Nov. 06, 2012 Rise Set
Actual Time 7:14 AM CET 5:16 PM CET
Civil Twilight 6:44 AM CET 5:46 PM CET
Nautical Twilight 6:10 AM CET 6:20 PM CET
Astronomical Twilight 5:36 AM CET 6:54 PM CET
Moon 11:40 PM CET (11/6) 12:57 PM CET (11/6)
Length of Visible Light 11h 02m
Length of Day
10h 01m
Waning Gibbous, 56% of the Moon is Illuminated
Nov 6
Waning Gibbous
Nov 7
Last Quarter
Nov 13
New
Nov 20
First Quarter
Nov 28
Full

Hourly Weather History & Observations

Time (CET) Temp. Windchill Dew Point Humidity Pressure Visibility Wind Dir Wind Speed Gust Speed Precip Events Conditions
12:00 AM 59.0 °F - 33.8 °F 39% 29.89 in 6.2 mi West 9.2 mph - N/A   Unknown
12:30 AM 59.0 °F - 30.2 °F 34% 29.89 in 6.2 mi WNW 8.1 mph - N/A   Unknown
1:00 AM 53.6 °F - 39.2 °F 58% 29.89 in 6.2 mi East 3.5 mph - N/A   Unknown
1:30 AM 51.8 °F - 39.2 °F 62% 29.89 in 6.2 mi South 10.4 mph - N/A   Unknown
2:00 AM 51.8 °F - 39.2 °F 62% 29.89 in 6.2 mi SSE 5.8 mph - N/A   Unknown
2:30 AM 51.8 °F - 37.4 °F 58% 29.89 in 6.2 mi SSE 4.6 mph - N/A   Unknown
3:00 AM 51.8 °F - 39.2 °F 62% 29.89 in 6.2 mi SSE 3.5 mph - N/A   Unknown
3:30 AM 48.2 °F - 39.2 °F 71% 29.89 in 6.2 mi Variable 2.3 mph - N/A   Unknown
4:00 AM 50.0 °F - 39.2 °F 66% 29.89 in 6.2 mi Variable 2.3 mph - N/A   Unknown
4:30 AM 51.8 °F - 39.2 °F 62% 29.89 in 6.2 mi Variable 2.3 mph - N/A   Unknown
5:00 AM 51.8 °F - 39.2 °F 62% 29.89 in 6.2 mi Variable 2.3 mph - N/A   Unknown
5:30 AM 51.8 °F - 39.2 °F 62% 29.89 in 6.2 mi SSE 4.6 mph - N/A   Unknown
6:00 AM 51.8 °F - 39.2 °F 62% 29.89 in 6.2 mi Variable 2.3 mph - N/A   Unknown
6:30 AM 51.8 °F - 39.2 °F 62% 29.89 in 6.2 mi South 8.1 mph - N/A   Unknown
7:00 AM 51.8 °F - 39.2 °F 62% 29.92 in 6.2 mi South 9.2 mph - N/A   Unknown
7:30 AM 50.0 °F - 39.2 °F 66% 29.92 in 6.2 mi South 5.8 mph - N/A   Unknown
8:00 AM 50.0 °F - 39.2 °F 66% 29.92 in 6.2 mi South 10.4 mph - N/A   Unknown
8:30 AM 53.6 °F - 39.2 °F 58% 29.92 in 6.2 mi South 9.2 mph - N/A   Unknown
9:00 AM 55.4 °F - 39.2 °F 54% 29.95 in 6.2 mi SSE 8.1 mph - N/A   Unknown
9:30 AM 59.0 °F - 39.2 °F 48% 29.95 in 6.2 mi Variable 3.5 mph - N/A   Unknown
10:00 AM 62.6 °F - 35.6 °F 37% 29.92 in 6.2 mi West 8.1 mph - N/A   Unknown
10:30 AM 62.6 °F - 37.4 °F 39% 29.92 in 6.2 mi West 13.8 mph - N/A   Unknown
11:00 AM 62.6 °F - 35.6 °F 37% 29.92 in 6.2 mi West 16.1 mph - N/A   Unknown
11:30 AM 62.6 °F - 39.2 °F 42% 29.92 in 6.2 mi West 20.7 mph - N/A   Unknown
12:00 PM 62.6 °F - 39.2 °F 42% 29.92 in 6.2 mi West 17.3 mph - N/A   Unknown
12:30 PM 64.4 °F - 37.4 °F 37% 29.92 in 6.2 mi West 15.0 mph - N/A   Unknown
1:00 PM 66.2 °F - 35.6 °F 32% 29.92 in 6.2 mi West 15.0 mph - N/A   Unknown
1:30 PM 64.4 °F - 35.6 °F 34% 29.92 in 6.2 mi West 18.4 mph 34.5 mph N/A   Unknown
2:00 PM 64.4 °F - 35.6 °F 34% 29.92 in 6.2 mi West 16.1 mph - N/A   Unknown
2:30 PM 64.4 °F - 39.2 °F 40% 29.92 in 6.2 mi West 13.8 mph - N/A   Unknown
3:00 PM 64.4 °F - 37.4 °F 37% 29.92 in 6.2 mi West 13.8 mph 27.6 mph N/A   Unknown
3:30 PM 64.4 °F - 37.4 °F 37% 29.92 in 6.2 mi West 11.5 mph - N/A   Unknown
4:00 PM 62.6 °F - 39.2 °F 42% 29.95 in 6.2 mi West 13.8 mph - N/A   Unknown
4:30 PM 60.8 °F - 37.4 °F 42% 29.92 in 6.2 mi West 15.0 mph 27.6 mph N/A   Unknown
5:00 PM 59.0 °F - 39.2 °F 48% 29.92 in 6.2 mi West 15.0 mph 29.9 mph N/A   Unknown
5:30 PM 59.0 °F - 39.2 °F 48% 29.92 in 6.2 mi West 18.4 mph - N/A   Unknown
6:00 PM 59.0 °F - 37.4 °F 45% 29.95 in 6.2 mi West 13.8 mph 26.5 mph N/A   Unknown
6:30 PM 59.0 °F - 33.8 °F 39% 29.95 in 6.2 mi West 15.0 mph - N/A   Unknown
7:00 PM 59.0 °F - 32.0 °F 36% 29.98 in 6.2 mi West 10.4 mph - N/A   Unknown
7:30 PM 55.4 °F - 33.8 °F 44% 29.98 in 6.2 mi Calm Calm - N/A   Unknown
8:00 PM 53.6 °F - 33.8 °F 47% 30.01 in 6.2 mi Variable 2.3 mph - N/A   Unknown
8:30 PM 51.8 °F - 35.6 °F 54% 30.01 in 6.2 mi Calm Calm - N/A   Unknown
9:00 PM 50.0 °F - 37.4 °F 62% 30.01 in 6.2 mi Variable 2.3 mph - N/A   Unknown
9:30 PM 48.2 °F - 37.4 °F 66% 30.04 in 6.2 mi Variable 2.3 mph - N/A   Unknown
10:00 PM 46.4 °F - 37.4 °F 71% 30.06 in 6.2 mi Variable 2.3 mph - N/A   Unknown
10:30 PM 46.4 °F - 37.4 °F 71% 30.06 in 6.2 mi Variable 2.3 mph - N/A   Unknown
11:00 PM 46.4 °F 45.2 °F 37.4 °F 71% 30.06 in 6.2 mi Variable 3.5 mph - N/A   Unknown
11:30 PM 46.4 °F 45.2 °F 37.4 °F 71% 30.09 in 6.2 mi North 3.5 mph - N/A   Unknown